Погода в Шпикулове

Россия / Тамбовская область     51°44′51″N   41°52′21″E
темп.,
°C
ветер,
м/с
пор.,
м/с
влажн.,
%
обл.,
%
осадки,
мм/ч
давл.,
гПа
погр.,
м
19 сентября, вс
вс1900:00+8в61069100 1.1 1021466
03:00+8вюв61173100 1.2 1020418
06:00+8вюв61363100 0.0 1020413
09:00+12вюв71344100 0.0 1019655
12:00+15вюв81236100 0.0 10181095
15:00+12вюв71459100 0.4 1017842
18:00+14вюв81441100 0.1 1016795
21:00+13вюв91640100 0.3 1015806
20 сентября, пн
пн2000:00+11вюв91863100 1.3 1014920
03:00+9юв91884100 2.9 1013802
06:00+8вюв91891100 6.7 1011774
09:00+10юв81593100 10.6 1011721
12:00+10юв71390100 0.1 1012561
15:00+11вюв71288100 0.1 1011462
18:00+11вюв81491100 0.8 1011423
21:00+10юв71292100 1.2 1012329
21 сентября, вт
вт2100:00+10юв499790 0.0 1013259
03:00+10юв3597100 0.3 1013159
06:00+10юв3694100 0.4 1012164
09:00+12юв2288100 0.5 1013262
12:00+16ююв236371 0.4 1011980
15:00+17ююз355090 0.7 10101593
18:00+14юв3470100 0.3 101065
21:00+14зюз2469100 0.4 1009101
22 сентября, ср
ср2200:00+12зюз367499 0.0 1009210
03:00+11зюз36846 0.0 1009268
06:00+10з478222 0.0 1010408
09:00+11з557288 0.0 1011875
12:00+11зюз456378 0.1 10121041
15:00+11зюз5565100 0.1 1013862
18:00+10юз4566100 0.0 1014809
21:00+8зюз227132 0.0 1015113
23 сентября, чт
чт2300:00+9ююз1270100 0.0 101676
03:00+9ююз1173100 0.0 101634
06:00+8ююв1275100 0.0 101645
09:00+10ююв2465100 0.0 1017507
12:00+13ююв3452100 0.0 10161183
15:00+14ююв3446100 0.1 10161569
18:00+12вюв3356100 0.0 101644
21:00+10в3560100 0.0 101573